User: anonymous   Login
Location: Mount Graham
(32.7016°N, 109.8912°W)
Time: 00:03:35
(UTC-07:00)
Language:

Cosmos 1340 - Orbit

View from above orbital plane
View from above orbital plane
View from above satellite
View from above satellite

Ground track
Ground track

The orbit data is extracted from the following two-line orbital elements,

1 13067U 82013A   17174.92534368 +.00000678 +00000-0 +30835-4 0  9995
2 13067 081.1869 126.5000 0004142 132.7666 227.3914 15.19379775928560
Epoch (UTC): 23 June 2017 22:12:29
Eccentricity: 0.0004142
inclination: 81.1869°
perigee height: 505 km
apogee height: 510 km
right ascension of ascending node: 126.5000°
argument of perigee: 132.7666°
revolutions per day: 15.19379775
mean anomaly at epoch: 227.3914°
orbit number at epoch: 92856

The dashed part of the orbit path shows where the satellite is in the earth's shadow,  

DLR